Погода в Эль-Мукалла

Йемен     14°32′47″N   49°07′27″E
темп.,
°C
ветер,
м/с
пор.,
м/с
влажн.,
%
обл.,
%
осадки,
мм/ч
давл.,
гПа
погр.,
м
27 ноября, сб
сб2700:00+24ссв116098 0.0 101517
03:00+23с116327 0.0 101421
06:00+22ссв116586 0.0 101624
09:00+28юв22414 0.0 1017697
12:00+30юв53345 0.0 1014871
15:00+29юв323919 0.0 1012710
18:00+25юв11570 0.0 101532
21:00+24ссз00610 0.0 101518
28 ноября, вс
вс2800:00+23ссз11635 0.0 101518
03:00+22ссз115422 0.0 101420
06:00+22с11450 0.0 101625
09:00+29в23260 0.0 1016768
12:00+31юв56290 0.0 10141059
15:00+28юв32410 0.0 1012705
18:00+24вюв22620 0.0 101532
21:00+23ссв11675 0.0 101625
29 ноября, пн
пн2900:00+22ссз006215 0.0 101520
03:00+21с11594 0.0 101535
06:00+21с114991 0.0 101629
09:00+28в25275 0.0 1017985
12:00+30вюв683111 0.0 10141415
15:00+28юв43410 0.0 1012726
18:00+24вюв11620 0.0 101533
21:00+23вюв11685 0.0 101626
30 ноября, вт
вт3000:00+23ссз225286 0.0 101522
03:00+22ссз333536 0.0 101524
06:00+22ссз333327 0.0 101625
09:00+28св242192 0.0 10161142
12:00+32св5715100 0.0 10132259
15:00+30вюв462693 0.0 10111123
18:00+23ю116077 0.0 101331
21:00+24с223524 0.0 101520
1 декабря, ср
ср100:00+22ссз22291 0.0 101424
03:00+20сз22250 0.0 101423
06:00+20ссз33240 0.0 101522
09:00+27в13170 0.0 10161037
12:00+30в46170 0.0 10121577
15:00+27ююв44310 0.0 1011956
18:00+23ю11500 0.0 101338
21:00+21ююв01540 0.0 101435